Terminal Aerodrome Forecast
Issued by NWS

Home | Current Version | Previous Version | Text Only | Print | Product List | Glossary On
Versions: 1 2 3 4 5 6 7 8 9 10 11 12 13 14 15 16 17 18 19 20 21 22 23 24 25 26 27 28 29 30 31 32 33 34 35 36 37 38 39 40 41 42 43 44 45 46 47 48 49 50
000
FTUS44 KHGX 310312 AAB
TAFIAH
TAF AMD
KIAH 310312Z 3103/0106 18005KT P6SM FEW025 BKN250
     FM311100 16006KT P6SM VCSH SCT030 OVC070
      TEMPO 3114/3118 SHRA BKN028 OVC050
     FM312100 14011KT P6SM VCSH SCT050 BKN150
     FM010100 16006KT P6SM SCT100 BKN250=

USA.gov is the U.S. government's official web portal to all federal, state and local government web resources and services.